Hourly Data Report for March 26, 2021

TORONTO CITY
ONTARIO
Current Station Operator: ECCC - MSC

43°40'00.000" N
79°24'00.000" W
112.50 m
6158355
71508
XTO

Download Data

Hourly Data (March 2021)
Hourly Data Report for March 26, 2021
TIME
LST
Temp Definition
°C
Dew Point Definition
°C
Rel Hum Definition
%
Precip. Amount Definition
mm

Wind Dir Definition
10's deg

Wind Spd Definition
km/h
Visibility Definition
km
Stn Press Definition
kPa
Hmdx Definition


Wind Chill Definition


Weather Definition


00:00 10.1 6.6 79 0.2       99.41     LegendNANA
01:00 9.5 6.6 82 0.1       99.25     LegendNANA
02:00 9.0 7.2 88 0.7       99.09     LegendNANA
03:00 9.2 8.0 92 3.0       98.81     LegendNANA
04:00 10.1 8.4 89 4.0       98.61     LegendNANA
05:00 9.3 8.0 92 7.9       98.37     LegendNANA
06:00 9.3 8.1 92 3.3       98.23     LegendNANA
07:00 9.6 8.2 91 8.1       98.22     LegendNANA
08:00 9.2 7.7 90 0.0       98.22     LegendNANA
09:00 8.4 7.1 92 0.5       98.25     LegendNANA
10:00 9.0 8.2 95 0.6       98.31     LegendNANA
11:00 7.9 5.5 85 0.3       98.64     LegendNANA
12:00 7.6 3.8 77 0.0       99.04     LegendNANA
13:00 6.3 2.4 76 0.0       99.45     LegendNANA
14:00 8.9 3.4 68 0.0       99.56     LegendNANA
15:00 9.8 4.5 69 0.0       99.73     LegendNANA
16:00 9.7 4.3 69 0.0       99.92     LegendNANA
17:00 7.4 2.4 70 0.0       100.12     LegendNANA
18:00 6.6 1.7 71 0.0       100.19     LegendNANA
19:00 5.9 1.1 71 0.0       100.32     LegendNANA
20:00 5.8 0.9 71 0.0       100.49     LegendNANA
21:00 5.4 0.4 70 0.0       100.57     LegendNANA
22:00 4.6 -0.5 69 0.0       100.57     LegendNANA
23:00 4.4 -0.3 72 0.0       100.58     LegendNANA

Notes on Data Quality.

Legend

  • E = Estimated
  • M = Missing
  • NA = Not Available*
  • [empty] = Indicates an unobserved value
Date modified: